Terug naar catalogus

COSMOS 1862

ActiefNavigatiePO
NORAD 18152·PAYLOAD·🇷🇺 Russia

Gelanceerd Jul 1, 1987 vanaf Plesetsk Cosmodrome

Loading…

Volgende Passages (komende 24 uur)

TLE

VersSource: Space-Track

Epoch: Sep 14, 2026, 14:35 UTC

1 18152U 87055A   26257.60793807  .00005754  00000-0  18067-3 0  9990
2 18152  82.4856 215.8833 0010584  69.5755 290.6623 15.32739779118750

Volg COSMOS 1862 in realtime met AllMySat

Download on the App Store